Cloud_Cover
23 7 5 5 4 3 5 5 5 68 69 100 100 96 100 79 95 100 100 36 63 100 15 100 75 8 100 100 100 87 34 90 82 100 95 28 64 41 68 36 12 48 16
0 0 5 5 5 5 5 5 5 5 5 6 75 87 100 98 100 100 100 98 98 99 78 100 83 6 100 100 21 8 5 5 72 100 80 5 6 74 89 65 94 54 75
13 14 5 1 5 5 5 5 5 15 21 76 95 44 100 100 100 100 100 100 100 100 98 100 100 75 100 100 10 8 6 4 6 100 45 5 6 11 16 98 100 83 99
4 15 4 5 5 5 5 5 5 5 24 99 100 100 100 100 100 100 100 100 100 100 100 100 100 100 100 44 100 15 96 39 5 94 60 8 17 9 5 91 92 72 21
16 4 5 5 3 7 5 14 20 90 39 27 5 71 100 31 100 100 100 100 100 100 100 100 100 100 80 29 100 100 84 14 5 5 5 96 41 5 11 100 10 15 58
42 4 2 5 6 5 6 78 6 6 6 5 56 7 5 5 12 79 100 100 100 100 100 100 100 98 100 20 92 42 99 34 5 42 52 6 5 5 14 95 5 20 60
35 13 5 3 3 6 5 5 5 2 0 4 1 0 2 5 5 5 100 100 100 100 100 100 100 100 76 68 99 88 84 52 5 5 5 5 5 5 5 19 50 75 25
11 11 8 4 2 5 5 5 5 5 0 1 1 0 0 0 0 5 49 91 100 100 100 100 100 100 100 76 100 100 100 8 5 5 27 6 5 5 14 5 5 45 14
2 4 76 5 5 23 5 4 19 5 5 0 0 1 0 0 2 5 5 42 95 100 100 100 100 100 100 100 100 100 86 6 5 5 28 10 46 79 12 5 5 26 6
37 19 22 10 4 4 1 2 48 6 5 3 1 5 0 7 0 5 5 78 91 100 100 100 100 100 100 100 100 100 95 7 5 5 5 5 8 100 93 6 44 100 16
5 42 42 27 7 3 3 75 15 5 2 32 8 9 0 4 8 5 12 98 94 100 100 100 100 100 100 100 100 100 100 98 6 5 5 5 5 85 100 87 22 11 29
55 81 44 38 32 24 4 6 10 3 4 27 75 10 62 42 10 42 39 48 93 91 100 100 100 100 100 100 100 100 100 100 92 5 9 5 5 100 100 98 96 98 82
6 31 42 51 39 26 47 43 41 36 33 24 72 100 100 69 14 9 63 5 69 99 100 100 100 100 100 100 100 100 100 100 46 5 43 100 73 100 100 92 100 100 100
4 1 16 16 33 29 33 46 39 46 100 84 18 62 44 37 21 29 84 26 5 97 100 100 100 100 100 100 100 100 100 100 100 51 44 100 98 100 100 100 98 5 100
0 0 2 11 20 26 31 36 98 100 100 52 57 90 93 84 26 19 69 8 6 66 100 100 100 100 100 100 100 100 100 100 100 100 44 93 81 100 100 100 63 84 100
3 0 2 5 5 20 28 20 92 100 100 99 76 88 100 98 53 23 92 66 5 5 40 100 100 100 100 100 100 100 100 100 100 88 74 100 93 100 100 100 15 78 100
93 47 100 87 8 9 3 5 1 11 91 100 88 94 74 84 100 82 62 12 60 64 6 98 100 100 100 100 100 100 100 100 100 100 76 99 74 100 100 100 96 100 100
100 100 100 100 100 100 28 21 22 66 100 56 26 25 100 23 9 99 53 52 21 7 4 43 100 100 100 100 100 100 100 100 100 100 100 100 100 99 100 100 100 99 100
100 100 100 100 100 100 100 100 78 66 75 84 30 40 18 72 69 16 27 27 61 17 21 12 95 100 100 100 100 100 100 100 100 100 100 100 100 100 100 100 100 100 100
100 100 100 100 100 100 100 100 100 99 29 36 32 30 22 6 6 99 28 17 18 95 26 22 14 100 100 100 100 100 100 97 100 100 100 100 100 100 84 100 100 100 97
100 100 100 100 100 100 100 100 100 100 26 14 36 21 66 100 92 29 45 26 56 24 8 11 7 9 98 100 100 100 90 100 100 86 100 99 100 100 100 100 100 100 100
100 100 100 100 100 100 100 100 46 6 12 39 10 1 0 4 88 87 95 26 13 29 24 19 10 16 48 100 100 100 100 57 97 77 100 100 100 100 100 100 100 100 94
100 100 100 100 100 100 100 100 100 91 8 5 7 5 4 5 5 47 98 93 17 15 19 6 8 63 74 100 100 100 100 79 98 100 100 100 100 100 93 73 94 99 100
100 100 100 100 100 100 100 100 100 100 96 36 1 0 5 0 4 5 5 5 6 17 21 6 72 71 48 100 100 100 100 100 100 100 100 81 100 98 81 44 99 99 100
100 100 100 100 100 100 100 100 100 100 92 43 22 6 5 4 1 5 13 16 27 32 16 23 36 38 10 35 99 100 100 100 100 99 97 98 100 100 100 34 67 100 95
100 100 100 100 100 100 100 100 100 100 83 23 12 17 28 30 14 5 5 15 30 25 25 25 19 20 52 100 100 100 100 100 100 100 75 100 100 94 100 100 90 100 100